Regional Weather Roundup
Issued by NWS

Home | Current Version | Previous Version | Graphics & Text | Print | Product List | Glossary On
Versions: 1 2 3 4 5 6 7 8 9 10 11 12 13 14 15 16 17 18 19 20 21 22 23 24 25 26
000
ASUS45 KCYS 170610
RWRWY

WYOMING REGIONAL WEATHER ROUNDUP
NATIONAL WEATHER SERVICE CHEYENNE WY
1100 PM MST FRI FEB 16 2018

NOTE:  "FAIR" INDICATES FEW OR NO CLOUDS BELOW 12,000 FEET
WITH NO SIGNIFICANT WEATHER AND/OR OBSTRUCTIONS TO VISIBILITY.

WYZ001-170700-
YELLOWSTONE NATIONAL PARK

CITY           SKY/WX    TMP DP  RH WIND       PRES   REMARKS
LK YELLOWSTONE   N/A     14   9  80 VRB7      29.86R WCI   4
6HR MIN TEMP:  14; 6HR MAX TEMP:  16; 6HR PCP:  0.07;

W YELLOWSTONE  NOT AVBL

$$
WYZ002>013-054>058-071-098>099-170700-
NORTHERN WYOMING

CITY           SKY/WX    TMP DP  RH WIND       PRES   REMARKS
JACKSON        FLURRIES  24  16  71 SW16      29.93S WCI  11
CODY           MOCLDY    29  18  63 W16G23    29.82R WCI  17
GREYBULL       CLOUDY    20  13  74 S3        29.88R
6HR MIN TEMP:  19; 6HR MAX TEMP:  23;

WORLAND        FAIR      11   9  92 SW5       29.87S WCI   3
6HR MIN TEMP:   6; 6HR MAX TEMP:  17;

SHERIDAN       MOCLDY    29  17  61 CALM      29.80F
6HR MIN TEMP:  21; 6HR MAX TEMP:  31;

BUFFALO        CLOUDY    29   9  43 CALM      29.80R
6HR MIN TEMP:  23; 6HR MAX TEMP:  31;

GILLETTE       FAIR      15   9  76 SW5       29.79F WCI   8
6HR MIN TEMP:  12; 6HR MAX TEMP:  30;

HULETT         FAIR      23  16  74 S7        29.80F WCI  15
NEWCASTLE      FAIR      16  10  79 N6        29.82S WCI   7

$$
WYZ014>020-022>026-101>103-170700-
CENTRAL WYOMING

CITY           SKY/WX    TMP DP  RH WIND       PRES   REMARKS
BIG PINEY      LGT SNOW  20  17  88 W15       29.95S FOG     WCI   6
6HR MIN TEMP:  19; 6HR MAX TEMP:  26; 6HR PCP: TRACE;

PINEDALE       LGT SNOW  21  19  93 W3        29.96R
DUBOIS           N/A    N/A N/A N/A MISG        N/A
LANDER         FAIR      29  11  47 W22       29.86S WCI  15
6HR MIN TEMP:  20; 6HR MAX TEMP:  29;

RIVERTON       FAIR      18   6  59 W12       29.86S WCI   5
6HR MIN TEMP:  17; 6HR MAX TEMP:  30;

CASPER         MOCLDY    24  12  60 W9        29.86R WCI  14
6HR MIN TEMP:  24; 6HR MAX TEMP:  35;

DOUGLAS        CLOUDY    31  13  47 W25G33    29.82R WCI  17
6HR MIN TEMP:  30; 6HR MAX TEMP:  37;


$$
WYZ021-027>030-104>119-170700-
SOUTHERN WYOMING

CITY           SKY/WX    TMP DP  RH WIND       PRES   REMARKS
EVANSTON       CLOUDY    25  12  58 SW7       30.07R WCI  17
6HR MIN TEMP:  25; 6HR MAX TEMP:  27;

FORT BRIDGER   FAIR      27  12  51 W31G41    30.02S WCI  11
ROCK SPRINGS   CLOUDY    29   8  41 W26G38    30.00R WCI  14
6HR MIN TEMP:  24; 6HR MAX TEMP:  29; 6HR PCP: TRACE;

DIXON          CLOUDY    25  17  71 W8        30.05R WCI  16
RAWLINS        CLOUDY    24  11  57 W26G32    29.94R WCI   8
6HR MIN TEMP:  22; 6HR MAX TEMP:  28;

SARATOGA       CLOUDY    25  16  68 W17G25    29.96R WCI  11
LARAMIE        FAIR      22  14  71 W38G52    29.82F WCI   2
6HR MIN TEMP:  22; 6HR MAX TEMP:  32;

CHEYENNE       FAIR      30  13  49 NW23G33   29.79R WCI  17
6HR MIN TEMP:  29; 6HR MAX TEMP:  38;

TORRINGTON     FAIR      35  17  47 W22G32    29.82R WCI  23
6HR MIN TEMP:  35; 6HR MAX TEMP:  41;

PINE BLUFFS    MOCLDY    34  14  44 MISG      29.86R

$$




USA.gov is the U.S. government's official web portal to all federal, state and local government web resources and services.